QZS-4 (MICHIBIKI-4)

Last updated on Sat Aug 22 2026 00:02:59 GMT+0000 (Coordinated Universal Time)

1 42965U 17062A 26231.50860323 -.00000345 00000+0 00000+0 0 9994 2 42965 40.0682 342.6787 0747846 269.1803 39.5331 1.00281572 32432
UTC large
Height (km)
Speed (km/s)
/
Latitude / Longitude
Inclination (degrees)
Orbital Period (minutes)
Azimuth
Elevation
Range (km)
Doppler Factor

Next 0 passes for location: London (51.5072 / 0.1276)

No passes found over London.
QZS-4 (MICHIBIKI-4)